Year,Month,Day,Hour,Minute,Value (Times are PST for temperature in C)
2016,08,05,00,00,15.00
2016,08,05,00,01,14.90
2016,08,05,00,02,14.90
2016,08,05,00,03,14.80
2016,08,05,00,04,14.80
2016,08,05,00,05,14.80
2016,08,05,00,06,14.80
2016,08,05,00,07,14.80
2016,08,05,00,08,14.80
2016,08,05,00,09,14.80
2016,08,05,00,10,14.80
2016,08,05,00,11,14.70
2016,08,05,00,12,14.70
2016,08,05,00,13,14.70
2016,08,05,00,14,14.70
2016,08,05,00,15,14.70
2016,08,05,00,16,14.70
2016,08,05,00,17,14.70
2016,08,05,00,18,14.70
2016,08,05,00,19,14.70
2016,08,05,00,20,14.60
2016,08,05,00,21,14.60
2016,08,05,00,22,14.60
2016,08,05,00,23,14.60
2016,08,05,00,24,14.50
2016,08,05,00,25,14.50
2016,08,05,00,26,14.50
2016,08,05,00,27,14.50
2016,08,05,00,28,14.40
2016,08,05,00,29,14.40
2016,08,05,00,30,14.40
2016,08,05,00,31,14.40
2016,08,05,00,32,14.40
2016,08,05,00,33,14.40
2016,08,05,00,34,14.40
2016,08,05,00,35,14.40
2016,08,05,00,36,14.40
2016,08,05,00,37,14.40
2016,08,05,00,38,14.40
2016,08,05,00,39,14.40
2016,08,05,00,40,14.40
2016,08,05,00,41,14.40
2016,08,05,00,42,14.40
2016,08,05,00,43,14.30
2016,08,05,00,44,14.30
2016,08,05,00,45,14.30
2016,08,05,00,46,14.30
2016,08,05,00,47,14.30
2016,08,05,00,48,14.30
2016,08,05,00,49,14.30
2016,08,05,00,50,14.30
2016,08,05,00,51,14.30
2016,08,05,00,52,14.30
2016,08,05,00,53,14.30
2016,08,05,00,54,14.30
2016,08,05,00,55,14.30
2016,08,05,00,56,14.30
2016,08,05,00,57,14.30
2016,08,05,00,58,14.20
2016,08,05,00,59,14.20
2016,08,05,01,00,14.20
2016,08,05,01,01,14.20
2016,08,05,01,02,14.20
2016,08,05,01,03,14.20
2016,08,05,01,04,14.20
2016,08,05,01,05,14.20
2016,08,05,01,06,14.20
2016,08,05,01,07,14.10
2016,08,05,01,08,14.10
2016,08,05,01,09,14.10
2016,08,05,01,10,14.00
2016,08,05,01,11,14.00
2016,08,05,01,12,14.00
2016,08,05,01,13,14.00
2016,08,05,01,14,13.90
2016,08,05,01,15,13.90
2016,08,05,01,16,13.90
2016,08,05,01,17,13.90
2016,08,05,01,18,13.90
2016,08,05,01,19,13.90
2016,08,05,01,20,13.90
2016,08,05,01,21,13.90
2016,08,05,01,22,13.90
2016,08,05,01,23,13.90
2016,08,05,01,24,13.80
2016,08,05,01,25,13.80
2016,08,05,01,26,13.80
2016,08,05,01,27,13.80
2016,08,05,01,28,13.80
2016,08,05,01,29,13.80
2016,08,05,01,30,13.80
2016,08,05,01,31,13.80
2016,08,05,01,32,13.80
2016,08,05,01,33,13.70
2016,08,05,01,34,13.70
2016,08,05,01,35,13.70
2016,08,05,01,36,13.70
2016,08,05,01,37,13.70
2016,08,05,01,38,13.70
2016,08,05,01,39,13.60
2016,08,05,01,40,13.60
2016,08,05,01,41,13.60
2016,08,05,01,42,13.60
2016,08,05,01,43,13.60
2016,08,05,01,44,13.60
2016,08,05,01,45,13.60
2016,08,05,01,46,13.60
2016,08,05,01,47,13.50
2016,08,05,01,48,13.50
2016,08,05,01,49,13.50
2016,08,05,01,50,13.50
2016,08,05,01,51,13.50
2016,08,05,01,52,13.50
2016,08,05,01,53,13.50
2016,08,05,01,54,13.50
2016,08,05,01,55,13.40
2016,08,05,01,56,13.40
2016,08,05,01,57,13.40
2016,08,05,01,58,13.40
2016,08,05,01,59,13.40
2016,08,05,02,00,13.40
2016,08,05,02,01,13.30
2016,08,05,02,02,13.30
2016,08,05,02,03,13.30
2016,08,05,02,04,13.30
2016,08,05,02,05,13.30
2016,08,05,02,06,13.30
2016,08,05,02,07,13.20
2016,08,05,02,08,13.20
2016,08,05,02,09,13.20
2016,08,05,02,10,13.20
2016,08,05,02,11,13.20
2016,08,05,02,12,13.20
2016,08,05,02,13,13.20
2016,08,05,02,14,13.20
2016,08,05,02,15,13.20
2016,08,05,02,16,13.20
2016,08,05,02,17,13.20
2016,08,05,02,18,13.20
2016,08,05,02,19,13.10
2016,08,05,02,20,13.10
2016,08,05,02,21,13.10
2016,08,05,02,22,13.00
2016,08,05,02,23,13.00
2016,08,05,02,24,13.00
2016,08,05,02,25,12.90
2016,08,05,02,26,12.90
2016,08,05,02,27,12.90
2016,08,05,02,28,12.90
2016,08,05,02,29,12.90
2016,08,05,02,30,12.90
2016,08,05,02,31,12.90
2016,08,05,02,32,12.90
2016,08,05,02,33,12.90
2016,08,05,02,34,12.90
2016,08,05,02,35,12.90
2016,08,05,02,36,12.90
2016,08,05,02,37,12.90
2016,08,05,02,38,12.90
2016,08,05,02,39,12.80
2016,08,05,02,40,12.80
2016,08,05,02,41,12.80
2016,08,05,02,42,12.80
2016,08,05,02,43,12.80
2016,08,05,02,44,12.80
2016,08,05,02,45,12.80
2016,08,05,02,46,12.80
2016,08,05,02,47,12.80
2016,08,05,02,48,12.80
2016,08,05,02,49,12.70
2016,08,05,02,50,12.70
2016,08,05,02,51,12.70
2016,08,05,02,52,12.70
2016,08,05,02,53,12.70
2016,08,05,02,54,12.70
2016,08,05,02,55,12.70
2016,08,05,02,56,12.70
2016,08,05,02,57,12.70
2016,08,05,02,58,12.70
2016,08,05,02,59,12.60
2016,08,05,03,00,12.60
2016,08,05,03,01,12.60
2016,08,05,03,02,12.60
2016,08,05,03,03,12.60
2016,08,05,03,04,12.60
2016,08,05,03,05,12.60
2016,08,05,03,06,12.60
2016,08,05,03,07,12.60
2016,08,05,03,08,12.60
2016,08,05,03,09,12.60
2016,08,05,03,10,12.50
2016,08,05,03,11,12.50
2016,08,05,03,12,12.40
2016,08,05,03,13,12.40
2016,08,05,03,14,12.40
2016,08,05,03,15,12.40
2016,08,05,03,16,12.40
2016,08,05,03,17,12.30
2016,08,05,03,18,12.30
2016,08,05,03,19,12.30
2016,08,05,03,20,12.30
2016,08,05,03,21,12.30
2016,08,05,03,22,12.30
2016,08,05,03,23,12.30
2016,08,05,03,24,12.30
2016,08,05,03,25,12.30
2016,08,05,03,26,12.30
2016,08,05,03,27,12.30
2016,08,05,03,28,12.30
2016,08,05,03,29,12.20
2016,08,05,03,30,12.20
2016,08,05,03,31,12.20
2016,08,05,03,32,12.20
2016,08,05,03,33,12.20
2016,08,05,03,34,12.20
2016,08,05,03,35,12.20
2016,08,05,03,36,12.20
2016,08,05,03,37,12.20
2016,08,05,03,38,12.20
2016,08,05,03,39,12.10
2016,08,05,03,40,12.10
2016,08,05,03,41,12.10
2016,08,05,03,42,12.10
2016,08,05,03,43,12.10
2016,08,05,03,44,12.10
2016,08,05,03,45,12.10
2016,08,05,03,46,12.00
2016,08,05,03,47,12.00
2016,08,05,03,48,12.00
2016,08,05,03,49,12.00
2016,08,05,03,50,12.00
2016,08,05,03,51,12.00
2016,08,05,03,52,11.90
2016,08,05,03,53,11.90
2016,08,05,03,54,11.90
2016,08,05,03,55,11.90
2016,08,05,03,56,11.80
2016,08,05,03,57,11.80
2016,08,05,03,58,11.80
2016,08,05,03,59,11.80
2016,08,05,04,00,11.80
2016,08,05,04,01,11.80
2016,08,05,04,02,11.80
2016,08,05,04,03,11.80
2016,08,05,04,04,11.80
2016,08,05,04,05,11.80
2016,08,05,04,06,11.80
2016,08,05,04,07,11.70
2016,08,05,04,08,11.70
2016,08,05,04,09,11.70
2016,08,05,04,10,11.70
2016,08,05,04,11,11.70
2016,08,05,04,12,11.70
2016,08,05,04,13,11.70
2016,08,05,04,14,11.70
2016,08,05,04,15,11.70
2016,08,05,04,16,11.70
2016,08,05,04,17,11.70
2016,08,05,04,18,11.70
2016,08,05,04,19,11.70
2016,08,05,04,20,11.60
2016,08,05,04,21,11.60
2016,08,05,04,22,11.60
2016,08,05,04,23,11.60
2016,08,05,04,24,11.60
2016,08,05,04,25,11.60
2016,08,05,04,26,11.60
2016,08,05,04,27,11.60
2016,08,05,04,28,11.60
2016,08,05,04,29,11.50
2016,08,05,04,30,11.50
2016,08,05,04,31,11.50
2016,08,05,04,32,11.50
2016,08,05,04,33,11.50
2016,08,05,04,34,11.40
2016,08,05,04,35,11.40
2016,08,05,04,36,11.40
2016,08,05,04,37,11.40
2016,08,05,04,38,11.40
2016,08,05,04,39,11.40
2016,08,05,04,40,11.40
2016,08,05,04,41,11.40
2016,08,05,04,42,11.40
2016,08,05,04,43,11.40
2016,08,05,04,44,11.40
2016,08,05,04,45,11.40
2016,08,05,04,46,11.40
2016,08,05,04,47,11.40
2016,08,05,04,48,11.40
2016,08,05,04,49,11.40
2016,08,05,04,50,11.40
2016,08,05,04,51,11.30
2016,08,05,04,52,11.30
2016,08,05,04,53,11.30
2016,08,05,04,54,11.30
2016,08,05,04,55,11.30
2016,08,05,04,56,11.30
2016,08,05,04,57,11.30
2016,08,05,04,58,11.30
2016,08,05,04,59,11.30
2016,08,05,05,00,11.30
2016,08,05,05,01,11.30
2016,08,05,05,02,11.30
2016,08,05,05,03,11.30
2016,08,05,05,04,11.30
2016,08,05,05,05,11.30
2016,08,05,05,06,11.30
2016,08,05,05,07,11.30
2016,08,05,05,08,11.30
2016,08,05,05,09,11.30
2016,08,05,05,10,11.30
2016,08,05,05,11,11.30
2016,08,05,05,12,11.30
2016,08,05,05,13,11.30
2016,08,05,05,14,11.30
2016,08,05,05,15,11.30
2016,08,05,05,16,11.30
2016,08,05,05,17,11.30
2016,08,05,05,18,11.20
2016,08,05,05,19,11.20
2016,08,05,05,20,11.20
2016,08,05,05,21,11.20
2016,08,05,05,22,11.20
2016,08,05,05,23,11.20
2016,08,05,05,24,11.20
2016,08,05,05,25,11.20
2016,08,05,05,26,11.20
2016,08,05,05,27,11.20
2016,08,05,05,28,11.20
2016,08,05,05,29,11.20
2016,08,05,05,30,11.20
2016,08,05,05,31,11.10
2016,08,05,05,32,11.10
2016,08,05,05,33,11.10
2016,08,05,05,34,11.10
2016,08,05,05,35,11.10
2016,08,05,05,36,11.10
2016,08,05,05,37,11.10
2016,08,05,05,38,11.00
2016,08,05,05,39,11.00
2016,08,05,05,40,10.90
2016,08,05,05,41,10.90
2016,08,05,05,42,10.90
2016,08,05,05,43,10.90
2016,08,05,05,44,10.90
2016,08,05,05,45,10.90
2016,08,05,05,46,10.90
2016,08,05,05,47,10.90
2016,08,05,05,48,11.00
2016,08,05,05,49,11.00
2016,08,05,05,50,11.00
2016,08,05,05,51,11.00
2016,08,05,05,52,11.00
2016,08,05,05,53,11.00
2016,08,05,05,54,11.00
2016,08,05,05,55,10.90
2016,08,05,05,56,10.90
2016,08,05,05,57,10.90
2016,08,05,05,58,10.90
2016,08,05,05,59,11.00
2016,08,05,06,00,11.00
2016,08,05,06,01,11.00
2016,08,05,06,02,11.00
2016,08,05,06,03,11.00
2016,08,05,06,04,11.00
2016,08,05,06,05,10.90
2016,08,05,06,06,10.90
2016,08,05,06,07,10.80
2016,08,05,06,08,10.80
2016,08,05,06,09,10.80
2016,08,05,06,10,10.80
2016,08,05,06,11,10.90
2016,08,05,06,12,10.90
2016,08,05,06,13,10.90
2016,08,05,06,14,10.90
2016,08,05,06,15,10.90
2016,08,05,06,16,10.90
2016,08,05,06,17,10.90
2016,08,05,06,18,11.00
2016,08,05,06,19,11.00
2016,08,05,06,20,11.10
2016,08,05,06,21,11.10
2016,08,05,06,22,11.10
2016,08,05,06,23,11.10
2016,08,05,06,24,11.10
2016,08,05,06,25,11.10
2016,08,05,06,26,11.10
2016,08,05,06,27,11.10
2016,08,05,06,28,11.10
2016,08,05,06,29,11.10
2016,08,05,06,30,11.10
2016,08,05,06,31,11.10
2016,08,05,06,32,11.10
2016,08,05,06,33,11.10
2016,08,05,06,34,11.10
2016,08,05,06,35,11.10
2016,08,05,06,36,11.10
2016,08,05,06,37,11.10
2016,08,05,06,38,11.10
2016,08,05,06,39,11.20
2016,08,05,06,40,11.20
2016,08,05,06,41,11.20
2016,08,05,06,42,11.20
2016,08,05,06,43,11.20
2016,08,05,06,44,11.20
2016,08,05,06,45,11.20
2016,08,05,06,46,11.20
2016,08,05,06,47,11.20
2016,08,05,06,48,11.20
2016,08,05,06,49,11.30
2016,08,05,06,50,11.30
2016,08,05,06,51,11.30
2016,08,05,06,52,11.30
2016,08,05,06,53,11.30
2016,08,05,06,54,11.30
2016,08,05,06,55,11.30
2016,08,05,06,56,11.30
2016,08,05,06,57,11.40
2016,08,05,06,58,11.40
2016,08,05,06,59,11.50
2016,08,05,07,00,11.50
2016,08,05,07,01,11.60
2016,08,05,07,02,11.60
2016,08,05,07,03,11.70
2016,08,05,07,04,11.80
2016,08,05,07,05,11.80
2016,08,05,07,06,11.90
2016,08,05,07,07,12.00
2016,08,05,07,08,12.00
2016,08,05,07,09,12.10
2016,08,05,07,10,12.10
2016,08,05,07,11,12.20
2016,08,05,07,12,12.20
2016,08,05,07,13,12.30
2016,08,05,07,14,12.30
2016,08,05,07,15,12.30
2016,08,05,07,16,12.30
2016,08,05,07,17,12.30
2016,08,05,07,18,12.40
2016,08,05,07,19,12.40
2016,08,05,07,20,12.40
2016,08,05,07,21,12.40
2016,08,05,07,22,12.50
2016,08,05,07,23,12.50
2016,08,05,07,24,12.60
2016,08,05,07,25,12.60
2016,08,05,07,26,12.60
2016,08,05,07,27,12.70
2016,08,05,07,28,12.80
2016,08,05,07,29,12.80
2016,08,05,07,30,12.90
2016,08,05,07,31,12.90
2016,08,05,07,32,12.90
2016,08,05,07,33,13.00
2016,08,05,07,34,13.00
2016,08,05,07,35,13.10
2016,08,05,07,36,13.20
2016,08,05,07,37,13.20
2016,08,05,07,38,13.30
2016,08,05,07,39,13.30
2016,08,05,07,40,13.30
2016,08,05,07,41,13.40
2016,08,05,07,42,13.40
2016,08,05,07,43,13.50
2016,08,05,07,44,13.50
2016,08,05,07,45,13.60
2016,08,05,07,46,13.70
2016,08,05,07,47,13.70
2016,08,05,07,48,13.80
2016,08,05,07,49,13.80
2016,08,05,07,50,13.90
2016,08,05,07,51,14.00
2016,08,05,07,52,14.10
2016,08,05,07,53,14.10
2016,08,05,07,54,14.20
2016,08,05,07,55,14.30
2016,08,05,07,56,14.40
2016,08,05,07,57,14.50
2016,08,05,07,58,14.60
2016,08,05,07,59,14.60
2016,08,05,08,00,14.70
2016,08,05,08,01,14.80
2016,08,05,08,02,14.90
2016,08,05,08,03,15.00
2016,08,05,08,04,15.00
2016,08,05,08,05,15.00
2016,08,05,08,06,15.00
2016,08,05,08,07,15.00
2016,08,05,08,08,15.00
2016,08,05,08,09,15.10
2016,08,05,08,10,15.10
2016,08,05,08,11,15.20
2016,08,05,08,12,15.20
2016,08,05,08,13,15.30
2016,08,05,08,14,15.30
2016,08,05,08,15,15.40
2016,08,05,08,16,15.40
2016,08,05,08,17,15.40
2016,08,05,08,18,15.50
2016,08,05,08,19,15.50
2016,08,05,08,20,15.50
2016,08,05,08,21,15.60
2016,08,05,08,22,15.60
2016,08,05,08,23,15.60
2016,08,05,08,24,15.60
2016,08,05,08,25,15.70
2016,08,05,08,26,15.70
2016,08,05,08,27,15.70
2016,08,05,08,28,15.80
2016,08,05,08,29,15.80
2016,08,05,08,30,15.80
2016,08,05,08,31,15.80
2016,08,05,08,32,15.80
2016,08,05,08,33,15.80
2016,08,05,08,34,15.80
2016,08,05,08,35,15.80
2016,08,05,08,36,15.90
2016,08,05,08,37,15.90
2016,08,05,08,38,15.90
2016,08,05,08,39,16.00
2016,08,05,08,40,16.10
2016,08,05,08,41,16.10
2016,08,05,08,42,16.20
2016,08,05,08,43,16.20
2016,08,05,08,44,16.30
2016,08,05,08,45,16.30
2016,08,05,08,46,16.30
2016,08,05,08,47,16.30
2016,08,05,08,48,16.30
2016,08,05,08,49,16.30
2016,08,05,08,50,16.30
2016,08,05,08,51,16.40
2016,08,05,08,52,16.40
2016,08,05,08,53,16.40
2016,08,05,08,54,16.40
2016,08,05,08,55,16.40
2016,08,05,08,56,16.40
2016,08,05,08,57,16.40
2016,08,05,08,58,16.40
2016,08,05,08,59,16.50
2016,08,05,09,00,16.40
2016,08,05,09,01,16.40
2016,08,05,09,02,16.40
2016,08,05,09,03,16.40
2016,08,05,09,04,16.40
2016,08,05,09,05,16.40
2016,08,05,09,06,16.40
2016,08,05,09,07,16.40
2016,08,05,09,08,16.40
2016,08,05,09,09,16.40
2016,08,05,09,10,16.50
2016,08,05,09,11,16.50
2016,08,05,09,12,16.60
2016,08,05,09,13,16.70
2016,08,05,09,14,16.80
2016,08,05,09,15,16.80
2016,08,05,09,16,16.90
2016,08,05,09,17,16.90
2016,08,05,09,18,16.90
2016,08,05,09,19,16.90
2016,08,05,09,20,16.90
2016,08,05,09,21,16.90
2016,08,05,09,22,17.00
2016,08,05,09,23,17.00
2016,08,05,09,24,17.00
2016,08,05,09,25,17.10
2016,08,05,09,26,17.10
2016,08,05,09,27,17.10
2016,08,05,09,28,17.10
2016,08,05,09,29,17.20
2016,08,05,09,30,17.20
2016,08,05,09,31,17.20
2016,08,05,09,32,17.30
2016,08,05,09,33,17.30
2016,08,05,09,34,17.30
2016,08,05,09,35,17.30
2016,08,05,09,36,17.30
2016,08,05,09,37,17.30
2016,08,05,09,38,17.30
2016,08,05,09,39,17.30
2016,08,05,09,40,17.30
2016,08,05,09,41,17.30
2016,08,05,09,42,17.30
2016,08,05,09,43,17.30
2016,08,05,09,44,17.30
2016,08,05,09,45,17.40
2016,08,05,09,46,17.40
2016,08,05,09,47,17.40
2016,08,05,09,48,17.40
2016,08,05,09,49,17.40
2016,08,05,09,50,17.40
2016,08,05,09,51,17.40
2016,08,05,09,52,17.40
2016,08,05,09,53,17.40
2016,08,05,09,54,17.40
2016,08,05,09,55,17.40
2016,08,05,09,56,17.40
2016,08,05,09,57,17.40
2016,08,05,09,58,17.40
2016,08,05,09,59,17.40
2016,08,05,10,00,17.40
2016,08,05,10,01,17.30
2016,08,05,10,02,17.40
2016,08,05,10,03,17.40
2016,08,05,10,04,17.40
2016,08,05,10,05,17.40
2016,08,05,10,06,17.40
2016,08,05,10,07,17.40
2016,08,05,10,08,17.50
2016,08,05,10,09,17.50
2016,08,05,10,10,17.60
2016,08,05,10,11,17.70
2016,08,05,10,12,17.80
2016,08,05,10,13,18.00
2016,08,05,10,14,18.20
2016,08,05,10,15,18.30
2016,08,05,10,16,18.30
2016,08,05,10,17,18.30
2016,08,05,10,18,18.30
2016,08,05,10,19,18.20
2016,08,05,10,20,18.20
2016,08,05,10,21,18.20
2016,08,05,10,22,18.10
2016,08,05,10,23,18.20
2016,08,05,10,24,18.20
2016,08,05,10,25,18.20
2016,08,05,10,26,18.30
2016,08,05,10,27,18.40
2016,08,05,10,28,18.50
2016,08,05,10,29,18.50
2016,08,05,10,30,18.60
2016,08,05,10,31,18.70
2016,08,05,10,32,18.70
2016,08,05,10,33,18.80
2016,08,05,10,34,18.80
2016,08,05,10,35,18.90
2016,08,05,10,36,18.90
2016,08,05,10,37,19.00
2016,08,05,10,38,19.00
2016,08,05,10,39,19.00
2016,08,05,10,40,19.00
2016,08,05,10,41,18.90
2016,08,05,10,42,18.90
2016,08,05,10,43,18.90
2016,08,05,10,44,18.80
2016,08,05,10,45,18.80
2016,08,05,10,46,18.80
2016,08,05,10,47,18.80
2016,08,05,10,48,18.70
2016,08,05,10,49,18.70
2016,08,05,10,50,18.70
2016,08,05,10,51,18.60
2016,08,05,10,52,18.60
2016,08,05,10,53,18.60
2016,08,05,10,54,18.70
2016,08,05,10,55,18.70
2016,08,05,10,56,18.70
2016,08,05,10,57,18.80
2016,08,05,10,58,18.80
2016,08,05,10,59,18.80
2016,08,05,11,00,18.80
2016,08,05,11,01,18.70
2016,08,05,11,02,18.70
2016,08,05,11,03,18.80
2016,08,05,11,04,18.80
2016,08,05,11,05,18.80
2016,08,05,11,06,18.70
2016,08,05,11,07,18.60
2016,08,05,11,08,18.60
2016,08,05,11,09,18.60
2016,08,05,11,10,18.70
2016,08,05,11,11,18.70
2016,08,05,11,12,18.70
2016,08,05,11,13,18.80
2016,08,05,11,14,18.80
2016,08,05,11,15,18.80
2016,08,05,11,16,18.90
2016,08,05,11,17,18.80
2016,08,05,11,18,18.80
2016,08,05,11,19,18.80
2016,08,05,11,20,18.80
2016,08,05,11,21,18.80
2016,08,05,11,22,18.90
2016,08,05,11,23,18.90
2016,08,05,11,24,19.00
2016,08,05,11,25,19.00
2016,08,05,11,26,19.00
2016,08,05,11,27,19.10
2016,08,05,11,28,19.10
2016,08,05,11,29,19.10
2016,08,05,11,30,19.10
2016,08,05,11,31,19.10
2016,08,05,11,32,19.10
2016,08,05,11,33,19.10
2016,08,05,11,34,19.20
2016,08,05,11,35,19.20
2016,08,05,11,36,19.20
2016,08,05,11,37,19.20
2016,08,05,11,38,19.20
2016,08,05,11,39,19.20
2016,08,05,11,40,19.20
2016,08,05,11,41,19.20
2016,08,05,11,42,19.20
2016,08,05,11,43,19.10
2016,08,05,11,44,19.10
2016,08,05,11,45,19.00
2016,08,05,11,46,19.00
2016,08,05,11,47,19.00
2016,08,05,11,48,19.00
2016,08,05,11,49,19.00
2016,08,05,11,50,19.10
2016,08,05,11,51,19.10
2016,08,05,11,52,19.10
2016,08,05,11,53,19.10
2016,08,05,11,54,19.10
2016,08,05,11,55,19.10
2016,08,05,11,56,19.20
2016,08,05,11,57,19.20
2016,08,05,11,58,19.20
2016,08,05,11,59,19.20
2016,08,05,12,00,19.20
2016,08,05,12,01,19.20
2016,08,05,12,02,19.10
2016,08,05,12,03,19.10
2016,08,05,12,04,19.10
2016,08,05,12,05,19.10
2016,08,05,12,06,19.10
2016,08,05,12,07,19.20
2016,08,05,12,08,19.30
2016,08,05,12,09,19.30
2016,08,05,12,10,19.30
2016,08,05,12,11,19.30
2016,08,05,12,12,19.30
2016,08,05,12,13,19.20
2016,08,05,12,14,19.20
2016,08,05,12,15,19.20
2016,08,05,12,16,19.20
2016,08,05,12,17,19.20
2016,08,05,12,18,19.20
2016,08,05,12,19,19.10
2016,08,05,12,20,19.00
2016,08,05,12,21,19.00
2016,08,05,12,22,19.10
2016,08,05,12,23,19.00
2016,08,05,12,24,18.90
2016,08,05,12,25,18.80
2016,08,05,12,26,18.80
2016,08,05,12,27,18.70
2016,08,05,12,28,18.70
2016,08,05,12,29,18.80
2016,08,05,12,30,18.80
2016,08,05,12,31,18.90
2016,08,05,12,32,19.00
2016,08,05,12,33,19.10
2016,08,05,12,34,19.10
2016,08,05,12,35,19.10
2016,08,05,12,36,19.10
2016,08,05,12,37,19.10
2016,08,05,12,38,19.10
2016,08,05,12,39,19.10
2016,08,05,12,40,19.20
2016,08,05,12,41,19.30
2016,08,05,12,42,19.30
2016,08,05,12,43,19.40
2016,08,05,12,44,19.40
2016,08,05,12,45,19.50
2016,08,05,12,46,19.50
2016,08,05,12,47,19.50
2016,08,05,12,48,19.50
2016,08,05,12,49,19.40
2016,08,05,12,50,19.30
2016,08,05,12,51,19.20
2016,08,05,12,52,19.10
2016,08,05,12,53,19.00
2016,08,05,12,54,18.90
2016,08,05,12,55,18.90
2016,08,05,12,56,18.90
2016,08,05,12,57,19.00
2016,08,05,12,58,19.00
2016,08,05,12,59,19.00
2016,08,05,13,00,19.10
2016,08,05,13,01,19.10
2016,08,05,13,02,19.00
2016,08,05,13,03,19.00
2016,08,05,13,04,19.00
2016,08,05,13,05,19.10
2016,08,05,13,06,19.20
2016,08,05,13,07,19.30
2016,08,05,13,08,19.40
2016,08,05,13,09,19.50
2016,08,05,13,10,19.70
2016,08,05,13,11,19.80
2016,08,05,13,12,19.80
2016,08,05,13,13,19.80
2016,08,05,13,14,19.70
2016,08,05,13,15,19.70
2016,08,05,13,16,19.70
2016,08,05,13,17,19.80
2016,08,05,13,18,19.80
2016,08,05,13,19,19.80
2016,08,05,13,20,19.70
2016,08,05,13,21,19.70
2016,08,05,13,22,19.70
2016,08,05,13,23,19.80
2016,08,05,13,24,19.80
2016,08,05,13,25,19.90
2016,08,05,13,26,19.80
2016,08,05,13,27,19.80
2016,08,05,13,28,19.80
2016,08,05,13,29,19.80
2016,08,05,13,30,19.90
2016,08,05,13,31,20.00
2016,08,05,13,32,20.10
2016,08,05,13,33,20.10
2016,08,05,13,34,20.10
2016,08,05,13,35,20.20
2016,08,05,13,36,20.30
2016,08,05,13,37,20.30
2016,08,05,13,38,20.40
2016,08,05,13,39,20.40
2016,08,05,13,40,20.40
2016,08,05,13,41,20.50
2016,08,05,13,42,20.50
2016,08,05,13,43,20.40
2016,08,05,13,44,20.40
2016,08,05,13,45,20.40
2016,08,05,13,46,20.30
2016,08,05,13,47,20.30
2016,08,05,13,48,20.30
2016,08,05,13,49,20.30
2016,08,05,13,50,20.30
2016,08,05,13,51,20.30
2016,08,05,13,52,20.30
2016,08,05,13,53,20.20
2016,08,05,13,54,20.30
2016,08,05,13,55,20.30
2016,08,05,13,56,20.30
2016,08,05,13,57,20.40
2016,08,05,13,58,20.40
2016,08,05,13,59,20.40
2016,08,05,14,00,20.40
2016,08,05,14,01,20.50
2016,08,05,14,02,20.60
2016,08,05,14,03,20.60
2016,08,05,14,04,20.70
2016,08,05,14,05,20.80
2016,08,05,14,06,20.90
2016,08,05,14,07,20.90
2016,08,05,14,08,20.90
2016,08,05,14,09,21.00
2016,08,05,14,10,21.00
2016,08,05,14,11,21.00
2016,08,05,14,12,21.00
2016,08,05,14,13,20.90
2016,08,05,14,14,20.80
2016,08,05,14,15,20.70
2016,08,05,14,16,20.60
2016,08,05,14,17,20.60
2016,08,05,14,18,20.60
2016,08,05,14,19,20.50
2016,08,05,14,20,20.50
2016,08,05,14,21,20.40
2016,08,05,14,22,20.40
2016,08,05,14,23,20.40
2016,08,05,14,24,20.40
2016,08,05,14,25,20.40
2016,08,05,14,26,20.40
2016,08,05,14,27,20.30
2016,08,05,14,28,20.30
2016,08,05,14,29,20.30
2016,08,05,14,30,20.30
2016,08,05,14,31,20.20
2016,08,05,14,32,20.20
2016,08,05,14,33,20.10
2016,08,05,14,34,20.10
2016,08,05,14,35,20.00
2016,08,05,14,36,19.90
2016,08,05,14,37,19.90
2016,08,05,14,38,19.80
2016,08,05,14,39,19.80
2016,08,05,14,40,19.70
2016,08,05,14,41,19.70
2016,08,05,14,42,19.60
2016,08,05,14,43,19.60
2016,08,05,14,44,19.50
2016,08,05,14,45,19.50
2016,08,05,14,46,19.40
2016,08,05,14,47,19.40
2016,08,05,14,48,19.40
2016,08,05,14,49,19.40
2016,08,05,14,50,19.30
2016,08,05,14,51,19.30
2016,08,05,14,52,19.30
2016,08,05,14,53,19.30
2016,08,05,14,54,19.20
2016,08,05,14,55,19.20
2016,08,05,14,56,19.10
2016,08,05,14,57,19.10
2016,08,05,14,58,19.10
2016,08,05,14,59,19.10
2016,08,05,15,00,19.10
2016,08,05,15,01,19.20
2016,08,05,15,02,19.20
2016,08,05,15,03,19.30
2016,08,05,15,04,19.40
2016,08,05,15,05,19.50
2016,08,05,15,06,19.60
2016,08,05,15,07,19.60
2016,08,05,15,08,19.70
2016,08,05,15,09,19.80
2016,08,05,15,10,19.80
2016,08,05,15,11,19.80
2016,08,05,15,12,19.90
2016,08,05,15,13,19.90
2016,08,05,15,14,19.90
2016,08,05,15,15,19.90
2016,08,05,15,16,19.80
2016,08,05,15,17,19.80
2016,08,05,15,18,19.60
2016,08,05,15,19,19.50
2016,08,05,15,20,19.40
2016,08,05,15,21,19.30
2016,08,05,15,22,19.20
2016,08,05,15,23,19.20
2016,08,05,15,24,19.10
2016,08,05,15,25,19.10
2016,08,05,15,26,19.00
2016,08,05,15,27,18.90
2016,08,05,15,28,18.90
2016,08,05,15,29,18.90
2016,08,05,15,30,18.90
2016,08,05,15,31,19.00
2016,08,05,15,32,19.00
2016,08,05,15,33,19.10
2016,08,05,15,34,19.10
2016,08,05,15,35,19.10
2016,08,05,15,36,19.20
2016,08,05,15,37,19.20
2016,08,05,15,38,19.30
2016,08,05,15,39,19.40
2016,08,05,15,40,19.60
2016,08,05,15,41,19.80
2016,08,05,15,42,19.90
2016,08,05,15,43,20.10
2016,08,05,15,44,20.30
2016,08,05,15,45,20.40
2016,08,05,15,46,20.50
2016,08,05,15,47,20.60
2016,08,05,15,48,20.60
2016,08,05,15,49,20.60
2016,08,05,15,50,20.60
2016,08,05,15,51,20.70
2016,08,05,15,52,20.70
2016,08,05,15,53,20.70
2016,08,05,15,54,20.70
2016,08,05,15,55,20.70
2016,08,05,15,56,20.60
2016,08,05,15,57,20.60
2016,08,05,15,58,20.50
2016,08,05,15,59,20.50
2016,08,05,16,00,20.40
2016,08,05,16,01,20.40
2016,08,05,16,02,20.50
2016,08,05,16,03,20.60
2016,08,05,16,04,20.70
2016,08,05,16,05,20.70
2016,08,05,16,06,20.70
2016,08,05,16,07,20.80
2016,08,05,16,08,20.80
2016,08,05,16,09,20.90
2016,08,05,16,10,20.90
2016,08,05,16,11,20.90
2016,08,05,16,12,20.80
2016,08,05,16,13,20.80
2016,08,05,16,14,20.60
2016,08,05,16,15,20.50
2016,08,05,16,16,20.30
2016,08,05,16,17,20.10
2016,08,05,16,18,19.90
2016,08,05,16,19,19.70
2016,08,05,16,20,19.50
2016,08,05,16,21,19.40
2016,08,05,16,22,19.20
2016,08,05,16,23,19.10
2016,08,05,16,24,19.10
2016,08,05,16,25,19.00
2016,08,05,16,26,18.90
2016,08,05,16,27,18.90
2016,08,05,16,28,18.90
2016,08,05,16,29,18.90
2016,08,05,16,30,19.00
2016,08,05,16,31,18.90
2016,08,05,16,32,18.90
2016,08,05,16,33,18.90
2016,08,05,16,34,19.00
2016,08,05,16,35,19.10
2016,08,05,16,36,19.10
2016,08,05,16,37,19.20
2016,08,05,16,38,19.30
2016,08,05,16,39,19.40
2016,08,05,16,40,19.50
2016,08,05,16,41,19.60
2016,08,05,16,42,19.80
2016,08,05,16,43,19.90
2016,08,05,16,44,20.00
2016,08,05,16,45,20.10
2016,08,05,16,46,20.10
2016,08,05,16,47,20.10
2016,08,05,16,48,20.10
2016,08,05,16,49,20.00
2016,08,05,16,50,19.90
2016,08,05,16,51,19.90
2016,08,05,16,52,19.90
2016,08,05,16,53,19.80
2016,08,05,16,54,19.80
2016,08,05,16,55,19.70
2016,08,05,16,56,19.70
2016,08,05,16,57,19.60
2016,08,05,16,58,19.60
2016,08,05,16,59,19.60
2016,08,05,17,00,19.60
2016,08,05,17,01,19.70
2016,08,05,17,02,19.70
2016,08,05,17,03,19.80
2016,08,05,17,04,19.80
2016,08,05,17,05,19.80
2016,08,05,17,06,19.80
2016,08,05,17,07,19.80
2016,08,05,17,08,19.80
2016,08,05,17,09,19.90
2016,08,05,17,10,19.90
2016,08,05,17,11,19.80
2016,08,05,17,12,19.80
2016,08,05,17,13,19.80
2016,08,05,17,14,19.90
2016,08,05,17,15,20.00
2016,08,05,17,16,20.10
2016,08,05,17,17,20.20
2016,08,05,17,18,20.20
2016,08,05,17,19,20.20